When you browse on this site, cookies collect data to enhance your experience and personalize the content and advertising you see.
Visit our Privacy Policy to learn more. By continuing to use the site, you agree to this use of cookies and data.
  • In France
  • List of Countries
  • For 7 days
  • Water Temperature
  • Weather Map
  • Weather Widgets
  • user-avatar
    Login

    Hourly Weather São Paulo

    Today, 6 December, Friday

    Time Temperature Precipitation Wind Pressure Humidity
    00:00 +24°C° 1.3 mm 2 mps 694 mmHg 88%
    01:00 +24°C° 1 mm 2 mps 694 mmHg 89%
    02:00 +24°C° 1 mm 2 mps 694 mmHg 89%
    03:00 +23°C° 1 mm 1 mps 694 mmHg 90%
    04:00 +23°C° 0.7 mm 2 mps 694 mmHg 89%
    05:00 +22°C° 0.7 mm 3 mps 694 mmHg 89%
    06:00 +21°C° 0.7 mm 4 mps 694 mmHg 89%
    07:00 +21°C° 0.2 mm 3 mps 695 mmHg 88%
    08:00 +21°C° 0.2 mm 3 mps 695 mmHg 87%
    09:00 +21°C° 0.2 mm 3 mps 696 mmHg 86%
    10:00 +21°C° 0.1 mm 3 mps 696 mmHg 83%
    11:00 +21°C° 0.1 mm 3 mps 696 mmHg 80%
    12:00 +22°C° 0.1 mm 3 mps 696 mmHg 77%
    13:00 +24°C° 0 mm 3 mps 696 mmHg 73%
    14:00 +25°C° 0 mm 3 mps 696 mmHg 68%
    15:00 +26°C° 0 mm 3 mps 695 mmHg 64%
    16:00 +25°C° 0 mm 3 mps 695 mmHg 68%
    17:00 +24°C° 0 mm 3 mps 695 mmHg 71%
    18:00 +21°C° 0 mm 4 mps 695 mmHg 75%
    19:00 +21°C° 0 mm 3 mps 695 mmHg 77%
    20:00 +20°C° 0 mm 3 mps 696 mmHg 79%
    21:00 +19°C° 0 mm 2 mps 696 mmHg 81%
    22:00 +19°C° 0 mm 2 mps 696 mmHg 82%
    23:00 +19°C° 0 mm 2 mps 696 mmHg 82%

    Tomorrow, 7 December, Saturday

    Time Temperature Precipitation Wind Pressure Humidity
    00:00 +20°C° 0 mm 1 mps 696 mmHg 82%
    01:00 +19°C° 0 mm 1 mps 696 mmHg 83%
    02:00 +19°C° 0 mm 1 mps 695 mmHg 84%
    03:00 +19°C° 0 mm 1 mps 695 mmHg 85%
    04:00 +18°C° 0 mm 2 mps 696 mmHg 85%
    05:00 +18°C° 0 mm 2 mps 696 mmHg 85%
    06:00 +18°C° 0 mm 2 mps 696 mmHg 86%
    07:00 +20°C° 0 mm 3 mps 697 mmHg 75%
    08:00 +22°C° 0 mm 3 mps 697 mmHg 65%
    09:00 +24°C° 0 mm 3 mps 698 mmHg 55%
    10:00 +26°C° 0 mm 4 mps 698 mmHg 51%
    11:00 +27°C° 0 mm 4 mps 698 mmHg 47%
    12:00 +28°C° 0 mm 4 mps 698 mmHg 43%
    13:00 +28°C° 0 mm 4 mps 698 mmHg 44%
    14:00 +28°C° 0 mm 5 mps 697 mmHg 46%
    15:00 +27°C° 0 mm 5 mps 697 mmHg 47%
    16:00 +26°C° 0 mm 5 mps 697 mmHg 53%
    17:00 +23°C° 0 mm 5 mps 697 mmHg 59%
    18:00 +22°C° 0 mm 5 mps 696 mmHg 65%
    19:00 +21°C° 0 mm 4 mps 697 mmHg 69%
    20:00 +20°C° 0 mm 4 mps 697 mmHg 74%
    21:00 +19°C° 0 mm 4 mps 698 mmHg 78%
    22:00 +18°C° 0 mm 3 mps 698 mmHg 78%
    23:00 +18°C° 0 mm 3 mps 698 mmHg 79%

    Day after tomorrow, 8 December, Sunday

    Time Temperature Precipitation Wind Pressure Humidity
    00:00 +18°C° 0 mm 3 mps 697 mmHg 79%
    01:00 +17°C° 0 mm 3 mps 697 mmHg 77%
    02:00 +17°C° 0 mm 2 mps 697 mmHg 76%
    03:00 +17°C° 0 mm 2 mps 697 mmHg 74%
    04:00 +17°C° 0 mm 2 mps 697 mmHg 75%
    05:00 +17°C° 0 mm 2 mps 697 mmHg 75%
    06:00 +17°C° 0 mm 2 mps 698 mmHg 76%
    07:00 +19°C° 0 mm 2 mps 698 mmHg 65%
    08:00 +21°C° 0 mm 3 mps 699 mmHg 54%
    09:00 +24°C° 0 mm 3 mps 699 mmHg 43%
    10:00 +25°C° 0 mm 3 mps 699 mmHg 40%
    11:00 +27°C° 0 mm 4 mps 699 mmHg 37%
    12:00 +28°C° 0 mm 4 mps 700 mmHg 34%
    13:00 +28°C° 0 mm 4 mps 699 mmHg 37%
    14:00 +28°C° 0 mm 5 mps 699 mmHg 39%
    15:00 +27°C° 0 mm 5 mps 698 mmHg 41%
    16:00 +26°C° 0 mm 5 mps 698 mmHg 46%
    17:00 +25°C° 0 mm 5 mps 698 mmHg 51%
    18:00 +22°C° 0 mm 4 mps 697 mmHg 55%
    19:00 +21°C° 0 mm 4 mps 698 mmHg 59%
    20:00 +20°C° 0 mm 3 mps 698 mmHg 62%
    21:00 +19°C° 0 mm 3 mps 698 mmHg 66%
    22:00 +19°C° 0 mm 3 mps 698 mmHg 68%
    23:00 +19°C° 0 mm 2 mps 698 mmHg 71%

    9 December, Monday

    Time Temperature Precipitation Wind Pressure Humidity
    00:00 +18°C° 0 mm 2 mps 697 mmHg 73%
    01:00 +18°C° 0 mm 2 mps 697 mmHg 76%
    02:00 +18°C° 0 mm 2 mps 697 mmHg 79%
    03:00 +18°C° 0 mm 2 mps 697 mmHg 81%
    04:00 +19°C° 0 mm 1 mps 697 mmHg 81%
    05:00 +19°C° 0 mm 1 mps 697 mmHg 81%
    06:00 +19°C° 0 mm 1 mps 698 mmHg 81%
    07:00 +21°C° 0 mm 1 mps 698 mmHg 73%
    08:00 +24°C° 0 mm 1 mps 699 mmHg 66%
    09:00 +26°C° 0 mm 2 mps 699 mmHg 59%
    10:00 +27°C° 0.2 mm 2 mps 699 mmHg 57%
    11:00 +28°C° 0.2 mm 2 mps 699 mmHg 54%
    12:00 +29°C° 0.2 mm 2 mps 699 mmHg 52%
    13:00 +30°C° 0.8 mm 2 mps 698 mmHg 52%
    14:00 +30°C° 0.8 mm 2 mps 698 mmHg 52%
    15:00 +30°C° 0.8 mm 1 mps 697 mmHg 52%
    16:00 +28°C° 0.9 mm 2 mps 697 mmHg 59%
    17:00 +27°C° 0.9 mm 3 mps 697 mmHg 65%
    18:00 +25°C° 0.9 mm 3 mps 696 mmHg 72%
    19:00 +25°C° 0.2 mm 3 mps 697 mmHg 72%
    20:00 +24°C° 0.2 mm 2 mps 697 mmHg 72%
    21:00 +24°C° 0.2 mm 2 mps 697 mmHg 72%
    22:00 +24°C° 0.3 mm 2 mps 697 mmHg 73%
    23:00 +23°C° 0.3 mm 1 mps 697 mmHg 75%

    10 December, Tuesday

    Time Temperature Precipitation Wind Pressure Humidity
    00:00 +23°C° 0.3 mm 1 mps 697 mmHg 76%
    01:00 +23°C° 0.9 mm 1 mps 697 mmHg 79%
    02:00 +23°C° 0.9 mm 1 mps 696 mmHg 82%
    03:00 +22°C° 0.9 mm 1 mps 696 mmHg 84%
    04:00 +21°C° 2.7 mm 2 mps 696 mmHg 86%
    05:00 +21°C° 2.7 mm 2 mps 696 mmHg 88%
    06:00 +21°C° 2.7 mm 3 mps 696 mmHg 90%
    07:00 +21°C° 2.5 mm 3 mps 697 mmHg 88%
    08:00 +21°C° 2.5 mm 2 mps 697 mmHg 87%
    09:00 +23°C° 2.5 mm 2 mps 698 mmHg 85%
    10:00 +23°C° 1.9 mm 2 mps 697 mmHg 84%
    11:00 +22°C° 1.9 mm 3 mps 697 mmHg 83%
    12:00 +22°C° 1.9 mm 3 mps 697 mmHg 82%
    13:00 +22°C° 2.3 mm 3 mps 697 mmHg 83%
    14:00 +21°C° 2.3 mm 3 mps 696 mmHg 85%
    15:00 +21°C° 2.3 mm 3 mps 696 mmHg 87%
    16:00 +21°C° 0.5 mm 2 mps 696 mmHg 86%
    17:00 +21°C° 0.5 mm 2 mps 696 mmHg 86%
    18:00 +21°C° 0.5 mm 2 mps 696 mmHg 86%
    19:00 +20°C° 0 mm 2 mps 696 mmHg 86%
    20:00 +20°C° 0 mm 2 mps 696 mmHg 87%
    21:00 +20°C° 0 mm 3 mps 696 mmHg 88%
    22:00 +20°C° 0 mm 2 mps 696 mmHg 87%
    23:00 +20°C° 0 mm 2 mps 696 mmHg 87%

    11 December, Wednesday

    Time Temperature Precipitation Wind Pressure Humidity
    00:00 +20°C° 0 mm 2 mps 696 mmHg 86%
    01:00 +19°C° 0 mm 2 mps 696 mmHg 87%
    02:00 +19°C° 0 mm 2 mps 695 mmHg 88%
    03:00 +20°C° 0 mm 1 mps 695 mmHg 88%
    04:00 +20°C° 0 mm 1 mps 695 mmHg 88%
    05:00 +20°C° 0 mm 1 mps 695 mmHg 87%
    06:00 +19°C° 0 mm 0 mps 696 mmHg 86%
    07:00 +19°C° 0.1 mm 0 mps 696 mmHg 86%
    08:00 +22°C° 0.1 mm 1 mps 696 mmHg 85%
    09:00 +22°C° 0.1 mm 1 mps 696 mmHg 84%
    10:00 +23°C° 0.5 mm 1 mps 696 mmHg 82%
    11:00 +23°C° 0.5 mm 1 mps 696 mmHg 80%
    12:00 +22°C° 0.5 mm 0 mps 696 mmHg 78%
    13:00 +25°C° 0.7 mm 1 mps 696 mmHg 75%
    14:00 +25°C° 0.7 mm 2 mps 695 mmHg 72%
    15:00 +26°C° 0.7 mm 3 mps 695 mmHg 69%
    16:00 +26°C° 0.8 mm 3 mps 695 mmHg 72%
    17:00 +25°C° 0.8 mm 3 mps 695 mmHg 74%
    18:00 +24°C° 0.8 mm 3 mps 694 mmHg 77%
    19:00 +24°C° 0.4 mm 3 mps 695 mmHg 78%
    20:00 +22°C° 0.4 mm 3 mps 695 mmHg 79%
    21:00 +22°C° 0.4 mm 3 mps 695 mmHg 80%
    22:00 +21°C° 0 mm 3 mps 695 mmHg 80%
    23:00 +21°C° 0 mm 3 mps 694 mmHg 81%
    Show more